"Pseudo-MPEC" for X72046

Created 2021 Jan 19 17:07:43 UT using Find_Orb

Click here for an explanation of pseudo-MPECs

 
 Astrometry: 
     X72046   C2021 01 11kiAstrometry-8m7XXG#*ucKn`V)skredacted;=clickMuyOU;uD29
     X72046   C2021 01 11y3F:EGrFJ#B@fhereG4cE/for76'eZ?;i4jhexplanation7#5Q6D29
     X72046   C2021 01 11#I`kZGlo'0:kG*L?o,^dusTdd1So4ir7)S\cN2[^L_0x%Z^cDZ6SD29

Station data:
(D29) Purple Mountain Observatory, XuYi Station  (N32.734366 E118.463900)
   China.  Observers H. B. Zhao, B. Li, G. Zhaori, R. Q. Hong, L. F. Hu.
   Measurers H. B. Zhao, B. Li. H. Lu, G. Zhaori. 1.04-m f/1.8 Schmidt + CCD.

Orbital elements:  X72046
   Perihelion 2021 Mar 27.797860 +/- 18.6091 TT = 19:08:55 (JD 2459301.297860)
Epoch 2021 Jan 12.0 TT = JDT 2459226.5   Earth MOID: 0.0025   Ve: 0.0684
M 285.15472602 +/- 55.213841        (J2000 ecliptic)          AutoNEOCP
n   1.00063389 +/- 0.897825         Peri.   97.54802 +/- 53.894057
a   0.98996363 +/- 0.592156         Node   106.42288 +/- 30.468617
e   0.2033970 +/- 0.227547          Incl.    3.84711 +/- 65.729265
P   0.98/359.77d           H 23.2   G  0.15   U 12.7  SR
q 0.78860793 +/- 0.345736    Q 1.19131934 +/- 14.0662
From 3 observations 2021 Jan. 11 (40.7 min); mean residual 0".30
Residuals in arcseconds: 
210111 D29  .26+  .16+    210111 D29  .51-  .31-    210111 D29  .26+  .16+    

Ephemerides (geocentric):
Date (UTC) HH   RA              Dec         delta   r     elong  mag " sig PA
---- -- -- --  -------------   -----------  ------ ------ -----  --- ---- ---
2021 01 19 17  00 21 36.664   +07 07 27.43  .10549 .95001  68.3 22.1 185'  10
2021 01 19 18  00 21 24.876   +07 07 50.51  .10550 .94986  68.2 22.2 187'  10
2021 01 19 19  00 21 13.084   +07 08 13.53  .10552 .94971  68.1 22.2 188'  10
2021 01 19 20  00 21 01.289   +07 08 36.48  .10554 .94956  68.0 22.2 190'  10
2021 01 19 21  00 20 49.491   +07 08 59.35  .10555 .94941  68.0 22.2 191'  10
2021 01 19 22  00 20 37.690   +07 09 22.15  .10557 .94926  67.9 22.2 193'  10
2021 01 19 23  00 20 25.886   +07 09 44.88  .10559 .94911  67.8 22.2 195'  10
2021 01 20 00  00 20 14.078   +07 10 07.54  .10561 .94896  67.7 22.2 196'  10
2021 01 20 01  00 20 02.267   +07 10 30.12  .10562 .94881  67.6 22.2 198'  10
2021 01 20 02  00 19 50.453   +07 10 52.63  .10564 .94866  67.5 22.2 199'   9
2021 01 20 03  00 19 38.636   +07 11 15.07  .10566 .94851  67.5 22.2 201'   9
2021 01 20 04  00 19 26.815   +07 11 37.43  .10567 .94836  67.4 22.2 203'   9
2021 01 20 05  00 19 14.991   +07 11 59.72  .10569 .94821  67.3 22.2 204'   9
2021 01 20 06  00 19 03.163   +07 12 21.93  .10571 .94806  67.2 22.2 206'   9
2021 01 20 07  00 18 51.332   +07 12 44.07  .10573 .94791  67.1 22.2 208'   9
2021 01 20 08  00 18 39.497   +07 13 06.14  .10574 .94776  67.0 22.2 209'   9
2021 01 20 09  00 18 27.660   +07 13 28.13  .10576 .94761  67.0 22.2 211'   9
2021 01 20 10  00 18 15.818   +07 13 50.04  .10578 .94746  66.9 22.2 213'   9
2021 01 20 11  00 18 03.974   +07 14 11.88  .10580 .94731  66.8 22.2 215'   9
2021 01 20 12  00 17 52.125   +07 14 33.65  .10581 .94716  66.7 22.2 216'   9
2021 01 20 13  00 17 40.274   +07 14 55.33  .10583 .94701  66.6 22.2 218'   9
2021 01 20 14  00 17 28.418   +07 15 16.94  .10585 .94686  66.5 22.2 220'   9
2021 01 20 15  00 17 16.559   +07 15 38.48  .10587 .94671  66.4 22.3 222'   9
2021 01 20 16  00 17 04.697   +07 15 59.94  .10588 .94656  66.4 22.3 223'   9
2021 01 20 17  00 16 52.831   +07 16 21.32  .10590 .94641  66.3 22.3 225'   9
2021 01 20 18  00 16 40.962   +07 16 42.62  .10592 .94626  66.2 22.3 227'   9
2021 01 20 19  00 16 29.089   +07 17 03.85  .10594 .94612  66.1 22.3 229'   9
2021 01 20 20  00 16 17.212   +07 17 25.00  .10595 .94597  66.0 22.3 231'   9
2021 01 20 21  00 16 05.331   +07 17 46.07  .10597 .94582  65.9 22.3 233'   9
2021 01 20 22  00 15 53.447   +07 18 07.06  .10599 .94567  65.9 22.3 235'   9
2021 01 20 23  00 15 41.560   +07 18 27.97  .10601 .94552  65.8 22.3 237'   9
2021 01 21 00  00 15 29.668   +07 18 48.80  .10603 .94537  65.7 22.3 239'   9
2021 01 21 01  00 15 17.773   +07 19 09.56  .10604 .94522  65.6 22.3 241'   9
2021 01 21 02  00 15 05.874   +07 19 30.24  .10606 .94507  65.5 22.3 243'   9
2021 01 21 03  00 14 53.972   +07 19 50.83  .10608 .94492  65.4 22.3 245'   9
2021 01 21 04  00 14 42.065   +07 20 11.35  .10610 .94477  65.4 22.3 247'   9
2021 01 21 05  00 14 30.155   +07 20 31.78  .10612 .94462  65.3 22.3 249'   9
2021 01 21 06  00 14 18.242   +07 20 52.14  .10614 .94447  65.2 22.3 251'   9
2021 01 21 07  00 14 06.324   +07 21 12.41  .10615 .94432  65.1 22.3 253'   9
2021 01 21 08  00 13 54.402   +07 21 32.61  .10617 .94417  65.0 22.3 255'   9
2021 01 21 09  00 13 42.477   +07 21 52.72  .10619 .94402  64.9 22.3 257'   9
2021 01 21 10  00 13 30.548   +07 22 12.75  .10621 .94387  64.9 22.3 259'   9
2021 01 21 11  00 13 18.615   +07 22 32.70  .10623 .94372  64.8 22.4 261'   9
2021 01 21 12  00 13 06.678   +07 22 52.57  .10625 .94357  64.7 22.4 263'   9
2021 01 21 13  00 12 54.737   +07 23 12.35  .10626 .94342  64.6 22.4 266'   9
2021 01 21 14  00 12 42.793   +07 23 32.06  .10628 .94327  64.5 22.4 268'   9
2021 01 21 15  00 12 30.844   +07 23 51.68  .10630 .94312  64.4 22.4 270'   9
2021 01 21 16  00 12 18.892   +07 24 11.21  .10632 .94297  64.3 22.4 272'   9